THY3JL LTFM-LGAV

Flight info

Callsign THY3JL
Flight time 1h 5m
Altitude 32000
Route IVGUS UY226 BIG UN604 OGSIL
Aircraft A321/M-SDE3FGHIRWY/LB1

Departure

Time 2026-05-06 03:47
Airport İstanbul Airport (LTFM)

Arrival

Time 2026-05-06 04:53
Airport Athens Eleftherios Venizelos International Airport (LGAV)
Time Latitude Longitude Altitude Speed Heading
2026-05-06 03:26 41.25822 28.75005 313 ft 0 kts 251°
2026-05-06 03:39 41.25823 28.75010 313 ft 2 kts 250°
2026-05-06 03:39 41.25829 28.75031 312 ft 2 kts 251°
2026-05-06 03:40 41.25834 28.75052 312 ft 2 kts 251°
2026-05-06 03:40 41.25839 28.75073 312 ft 2 kts 252°
2026-05-06 03:40 41.25844 28.75094 311 ft 2 kts 255°
2026-05-06 03:40 41.25848 28.75115 312 ft 2 kts 285°
2026-05-06 03:41 41.25841 28.75134 311 ft 2 kts 329°
2026-05-06 03:41 41.25826 28.75145 312 ft 2 kts 340°
2026-05-06 03:41 41.25810 28.75151 312 ft 2 kts 346°
2026-05-06 03:41 41.25794 28.75156 312 ft 2 kts 351°
2026-05-06 03:42 41.25780 28.75159 310 ft 1 kts 356°
2026-05-06 03:42 41.25775 28.75159 311 ft 0 kts 359°
2026-05-06 03:43 41.25780 28.75159 310 ft 4 kts 359°
2026-05-06 03:43 41.25836 28.75181 313 ft 13 kts 45°
2026-05-06 03:43 41.25876 28.75271 314 ft 13 kts 21°
2026-05-06 03:44 41.25979 28.75272 314 ft 16 kts 360°
2026-05-06 03:44 41.26090 28.75270 315 ft 16 kts 359°
2026-05-06 03:44 41.26201 28.75268 314 ft 14 kts 359°
2026-05-06 03:44 41.26241 28.75314 314 ft 8 kts 79°
2026-05-06 03:45 41.26243 28.75394 315 ft 9 kts 89°
2026-05-06 03:45 41.26244 28.75474 316 ft 8 kts 89°
2026-05-06 03:45 41.26244 28.75537 318 ft 0 kts 90°
2026-05-06 03:46 41.26244 28.75595 322 ft 12 kts 90°
2026-05-06 03:46 41.26290 28.75666 325 ft 11 kts
2026-05-06 03:46 41.26436 28.75665 323 ft 49 kts 359°
2026-05-06 03:47 41.27031 28.75657 321 ft 119 kts 359°
2026-05-06 03:47 41.28063 28.75645 322 ft 174 kts 360°
2026-05-06 03:47 41.29315 28.75621 937 ft 180 kts 360°
2026-05-06 03:47 41.30484 28.76038 1772 ft 178 kts 34°
2026-05-06 03:48 41.31450 28.77116 2375 ft 187 kts 39°
2026-05-06 03:48 41.32518 28.78249 2577 ft 207 kts 32°
2026-05-06 03:48 41.33812 28.79296 2737 ft 229 kts 28°
2026-05-06 03:48 41.35278 28.80377 2983 ft 250 kts 27°
2026-05-06 03:49 41.36824 28.81510 3610 ft 256 kts 30°
2026-05-06 03:49 41.38070 28.83194 4285 ft 263 kts 62°
2026-05-06 03:49 41.38473 28.85578 4979 ft 268 kts 83°
2026-05-06 03:49 41.38550 28.88078 5670 ft 272 kts 86°
2026-05-06 03:50 41.38430 28.90602 6336 ft 278 kts 103°
2026-05-06 03:50 41.37498 28.92884 6926 ft 287 kts 132°
2026-05-06 03:50 41.35848 28.94386 7530 ft 292 kts 160°
2026-05-06 03:50 41.33834 28.94776 8119 ft 295 kts 180°
2026-05-06 03:51 41.31765 28.94802 8718 ft 299 kts 180°
2026-05-06 03:51 41.29672 28.94825 9317 ft 304 kts 179°
2026-05-06 03:51 41.27551 28.94840 9927 ft 307 kts 182°
2026-05-06 03:51 41.25413 28.94468 10371 ft 315 kts 195°
2026-05-06 03:52 41.23302 28.93440 10485 ft 333 kts 209°
2026-05-06 03:52 41.21220 28.91908 10622 ft 351 kts 211°
2026-05-06 03:52 41.19041 28.90300 10898 ft 363 kts 210°
2026-05-06 03:52 41.16813 28.88677 11390 ft 367 kts 210°
2026-05-06 03:53 41.14553 28.87050 11931 ft 371 kts 210°
2026-05-06 03:53 41.12272 28.85420 12470 ft 374 kts 210°
2026-05-06 03:53 41.09973 28.83775 12999 ft 377 kts 210°
2026-05-06 03:53 41.07656 28.82089 13514 ft 380 kts 213°
2026-05-06 03:54 41.05503 28.80060 14005 ft 381 kts 219°
2026-05-06 03:54 41.03385 28.77923 14509 ft 384 kts 219°
2026-05-06 03:54 41.01398 28.75928 14985 ft 386 kts 219°
2026-05-06 03:54 40.99251 28.73775 15506 ft 388 kts 219°
2026-05-06 03:55 40.97093 28.71615 15996 ft 389 kts 219°
2026-05-06 03:55 40.94933 28.69441 16496 ft 390 kts 221°
2026-05-06 03:55 40.92995 28.66936 16973 ft 389 kts 233°
2026-05-06 03:55 40.91465 28.63996 17444 ft 388 kts 244°
2026-05-06 03:56 40.90397 28.60736 17920 ft 386 kts 256°
2026-05-06 03:56 40.89795 28.57285 18385 ft 385 kts 262°
2026-05-06 03:56 40.89298 28.53792 18785 ft 387 kts 262°
2026-05-06 03:56 40.88788 28.50292 19171 ft 389 kts 262°
2026-05-06 03:57 40.88443 28.47963 19429 ft 391 kts 262°
2026-05-06 03:57 40.87736 28.43226 19936 ft 393 kts 262°
2026-05-06 03:57 40.87212 28.39713 20324 ft 395 kts 262°
2026-05-06 03:57 40.86854 28.37313 20573 ft 396 kts 262°
2026-05-06 03:58 40.86320 28.33717 20945 ft 399 kts 262°
2026-05-06 03:58 40.85783 28.30105 21308 ft 401 kts 262°
2026-05-06 03:58 40.85243 28.26480 21676 ft 403 kts 262°
2026-05-06 03:58 40.84693 28.22836 22036 ft 405 kts 262°
2026-05-06 03:59 40.84138 28.19177 22397 ft 407 kts 262°
2026-05-06 03:59 40.83585 28.15506 22754 ft 409 kts 262°
2026-05-06 03:59 40.83029 28.11812 23110 ft 411 kts 262°
2026-05-06 03:59 40.82470 28.08096 23460 ft 413 kts 262°
2026-05-06 04:00 40.81916 28.04422 23788 ft 415 kts 262°
2026-05-06 04:00 40.81346 28.00664 24069 ft 417 kts 262°
2026-05-06 04:00 40.80774 27.96901 24372 ft 418 kts 262°
2026-05-06 04:00 40.80196 27.93131 24664 ft 420 kts 262°
2026-05-06 04:01 40.79637 27.89341 24955 ft 421 kts 265°
2026-05-06 04:01 40.79433 27.85505 25239 ft 418 kts 274°
2026-05-06 04:01 40.79346 27.81658 25515 ft 423 kts 265°
2026-05-06 04:01 40.78555 27.77876 25786 ft 432 kts 250°
2026-05-06 04:02 40.77064 27.74395 26053 ft 440 kts 237°
2026-05-06 04:02 40.74991 27.71389 26310 ft 448 kts 224°
2026-05-06 04:02 40.72429 27.68999 26564 ft 455 kts 212°
2026-05-06 04:02 40.69653 27.66965 26826 ft 458 kts 212°
2026-05-06 04:03 40.66853 27.64933 27091 ft 460 kts 212°
2026-05-06 04:03 40.64039 27.62906 27355 ft 462 kts 212°
2026-05-06 04:03 40.61211 27.60879 27620 ft 463 kts 212°
2026-05-06 04:03 40.58377 27.58849 27883 ft 465 kts 212°
2026-05-06 04:04 40.55528 27.56802 28121 ft 467 kts 212°
2026-05-06 04:04 40.52679 27.54706 28365 ft 469 kts 213°
2026-05-06 04:04 40.49838 27.52574 28600 ft 471 kts 213°
2026-05-06 04:04 40.46985 27.50415 28834 ft 472 kts 214°
2026-05-06 04:05 40.44137 27.48258 29221 ft 468 kts 214°
2026-05-06 04:05 40.41369 27.46183 30363 ft 449 kts 214°
2026-05-06 04:05 40.38690 27.44183 30612 ft 451 kts 214°
2026-05-06 04:05 40.35946 27.42134 30739 ft 454 kts 214°
2026-05-06 04:06 40.33186 27.40076 30860 ft 457 kts 214°
2026-05-06 04:06 40.30408 27.38008 30986 ft 461 kts 214°
2026-05-06 04:06 40.27692 27.35843 31518 ft 447 kts 219°
2026-05-06 04:06 40.25163 27.33512 31935 ft 445 kts 220°
2026-05-06 04:07 40.22623 27.31173 32065 ft 448 kts 220°
2026-05-06 04:07 40.20064 27.28815 32102 ft 453 kts 220°
2026-05-06 04:07 40.14847 27.24008 32097 ft 460 kts 219°
2026-05-06 04:08 40.09598 27.19174 32100 ft 461 kts 220°
2026-05-06 04:08 40.04354 27.14359 32099 ft 461 kts 220°
2026-05-06 04:09 39.99102 27.09549 32101 ft 461 kts 219°
2026-05-06 04:09 39.93849 27.04734 32110 ft 461 kts 220°
2026-05-06 04:10 39.88598 26.99931 32108 ft 461 kts 219°
2026-05-06 04:10 39.83332 26.95139 32115 ft 461 kts 219°
2026-05-06 04:11 39.78071 26.90363 32116 ft 461 kts 219°
2026-05-06 04:11 39.72818 26.85604 32115 ft 460 kts 220°
2026-05-06 04:12 39.67581 26.80854 32108 ft 459 kts 220°
2026-05-06 04:12 39.62345 26.76110 32111 ft 459 kts 219°
2026-05-06 04:13 39.57068 26.71346 32104 ft 459 kts 219°
2026-05-06 04:13 39.51828 26.66632 32111 ft 458 kts 219°
2026-05-06 04:14 39.46594 26.61930 32109 ft 458 kts 219°
2026-05-06 04:14 39.41363 26.57228 32104 ft 457 kts 219°
2026-05-06 04:15 39.36132 26.52546 32104 ft 457 kts 219°
2026-05-06 04:15 39.30751 26.48120 32100 ft 460 kts 214°
2026-05-06 04:16 39.25217 26.43972 32098 ft 456 kts 219°
2026-05-06 04:16 39.20619 26.38521 32091 ft 443 kts 237°
2026-05-06 04:17 39.16774 26.32315 32089 ft 443 kts 236°
2026-05-06 04:17 39.12905 26.26115 32088 ft 443 kts 236°
2026-05-06 04:18 39.09031 26.19944 32090 ft 443 kts 236°
2026-05-06 04:18 39.05156 26.13767 32095 ft 443 kts 236°
2026-05-06 04:19 39.01284 26.07588 32092 ft 443 kts 236°
2026-05-06 04:19 38.97436 26.01466 32092 ft 443 kts 236°
2026-05-06 04:20 38.93551 25.95318 32092 ft 442 kts 236°
2026-05-06 04:20 38.89658 25.89181 32100 ft 442 kts 236°
2026-05-06 04:21 38.85787 25.83052 32090 ft 442 kts 236°
2026-05-06 04:21 38.81906 25.76918 32092 ft 442 kts 236°
2026-05-06 04:22 38.78022 25.70795 32089 ft 442 kts 236°
2026-05-06 04:23 38.72185 25.61648 32088 ft 442 kts 236°
2026-05-06 04:23 38.68295 25.55550 32085 ft 441 kts 236°
2026-05-06 04:24 38.64412 25.49461 32086 ft 441 kts 236°
2026-05-06 04:24 38.60523 25.43391 32086 ft 442 kts 236°
2026-05-06 04:25 38.56619 25.37332 32086 ft 442 kts 235°
2026-05-06 04:25 38.52720 25.31273 32087 ft 442 kts 235°
2026-05-06 04:26 38.48809 25.25188 32088 ft 442 kts 235°
2026-05-06 04:26 38.44919 25.19158 32086 ft 442 kts 235°
2026-05-06 04:26 38.42973 25.16150 31881 ft 434 kts 235°
2026-05-06 04:27 38.41052 25.13199 31617 ft 419 kts 235°
2026-05-06 04:27 38.39241 25.10424 31166 ft 408 kts 235°
2026-05-06 04:27 38.37440 25.07659 30585 ft 402 kts 235°
2026-05-06 04:27 38.35669 25.04925 29939 ft 398 kts 235°
2026-05-06 04:28 38.33894 25.02180 28607 ft 407 kts 235°
2026-05-06 04:28 38.32055 24.99336 27493 ft 412 kts 234°
2026-05-06 04:28 38.30245 24.96547 27123 ft 404 kts 234°
2026-05-06 04:28 38.28471 24.93823 26882 ft 396 kts 234°
2026-05-06 04:29 38.26730 24.91155 26619 ft 388 kts 234°
2026-05-06 04:29 38.25011 24.88521 26358 ft 385 kts 234°
2026-05-06 04:29 38.23327 24.85937 26112 ft 383 kts 235°
2026-05-06 04:29 38.21621 24.83320 25872 ft 382 kts 234°
2026-05-06 04:30 38.19923 24.80722 25620 ft 380 kts 234°
2026-05-06 04:30 38.18232 24.78139 25306 ft 379 kts 236°
2026-05-06 04:30 38.16426 24.75673 25068 ft 383 kts 227°
2026-05-06 04:30 38.15051 24.74264 24912 ft 387 kts 220°
2026-05-06 04:31 38.12746 24.72459 24674 ft 389 kts 216°
2026-05-06 04:31 38.10417 24.70716 24434 ft 388 kts 216°
2026-05-06 04:31 38.08099 24.68978 24202 ft 386 kts 217°
2026-05-06 04:31 38.05786 24.67240 23965 ft 385 kts 217°
2026-05-06 04:32 38.03487 24.65515 23742 ft 384 kts 217°
2026-05-06 04:32 38.01202 24.63796 23472 ft 381 kts 217°
2026-05-06 04:32 37.98923 24.62081 23197 ft 380 kts 217°
2026-05-06 04:32 37.96651 24.60371 22925 ft 379 kts 217°
2026-05-06 04:33 37.94387 24.58671 22665 ft 377 kts 217°
2026-05-06 04:33 37.92132 24.56982 22390 ft 375 kts 217°
2026-05-06 04:33 37.89880 24.55298 22132 ft 376 kts 217°
2026-05-06 04:33 37.87633 24.53618 21865 ft 373 kts 217°
2026-05-06 04:34 37.85405 24.51952 21607 ft 370 kts 217°
2026-05-06 04:34 37.83180 24.50290 21246 ft 364 kts 217°
2026-05-06 04:34 37.81036 24.48690 20822 ft 361 kts 217°
2026-05-06 04:34 37.78879 24.47080 20390 ft 358 kts 217°
2026-05-06 04:35 37.76911 24.45615 20000 ft 356 kts 217°
2026-05-06 04:35 37.74792 24.44041 19444 ft 349 kts 216°
2026-05-06 04:35 37.72697 24.42489 18642 ft 346 kts 216°
2026-05-06 04:35 37.70632 24.40955 17795 ft 342 kts 216°
2026-05-06 04:36 37.68600 24.39443 16948 ft 337 kts 216°
2026-05-06 04:36 37.66589 24.37951 16127 ft 333 kts 215°
2026-05-06 04:36 37.64609 24.36483 15351 ft 328 kts 215°
2026-05-06 04:36 37.62653 24.35031 14593 ft 324 kts 214°
2026-05-06 04:37 37.60726 24.33599 13864 ft 320 kts 214°
2026-05-06 04:37 37.58819 24.32182 13044 ft 316 kts 214°
2026-05-06 04:37 37.57114 24.30516 12234 ft 306 kts 232°
2026-05-06 04:37 37.55995 24.28306 11447 ft 296 kts 252°
2026-05-06 04:38 37.55526 24.25824 10662 ft 289 kts 269°
2026-05-06 04:38 37.55418 24.23294 9838 ft 290 kts 270°
2026-05-06 04:38 37.55311 24.20752 9011 ft 288 kts 269°
2026-05-06 04:38 37.55201 24.18234 8246 ft 286 kts 269°
2026-05-06 04:39 37.55088 24.15747 7501 ft 282 kts 268°
2026-05-06 04:39 37.54976 24.13289 6786 ft 280 kts 268°
2026-05-06 04:39 37.54863 24.10856 6060 ft 276 kts 268°
2026-05-06 04:39 37.54751 24.08446 5319 ft 274 kts 267°
2026-05-06 04:40 37.54639 24.06065 4597 ft 271 kts 267°
2026-05-06 04:40 37.54528 24.03727 4102 ft 262 kts 267°
2026-05-06 04:40 37.54421 24.01476 3977 ft 251 kts 267°
2026-05-06 04:40 37.54321 23.99342 3979 ft 240 kts 267°
2026-05-06 04:41 37.54225 23.97255 3994 ft 238 kts 267°
2026-05-06 04:41 37.54131 23.95170 3988 ft 238 kts 267°
2026-05-06 04:41 37.54035 23.93079 3985 ft 243 kts 267°
2026-05-06 04:41 37.53934 23.90959 3997 ft 241 kts 267°
2026-05-06 04:42 37.53834 23.88858 3988 ft 236 kts 267°
2026-05-06 04:42 37.53738 23.86867 3991 ft 222 kts 267°
2026-05-06 04:42 37.53644 23.84940 3994 ft 220 kts 267°
2026-05-06 04:42 37.53548 23.83021 3999 ft 219 kts 267°
2026-05-06 04:43 37.53454 23.81108 3999 ft 219 kts 267°
2026-05-06 04:43 37.53361 23.79192 3998 ft 219 kts 267°
2026-05-06 04:43 37.53287 23.77275 3988 ft 219 kts 273°
2026-05-06 04:43 37.53748 23.75475 3981 ft 219 kts 305°
2026-05-06 04:44 37.54909 23.74266 3985 ft 220 kts 336°
2026-05-06 04:44 37.56416 23.73939 4008 ft 222 kts 355°
2026-05-06 04:44 37.57958 23.73828 3994 ft 222 kts 355°
2026-05-06 04:44 37.59504 23.73715 3999 ft 222 kts 355°
2026-05-06 04:45 37.61048 23.73598 3989 ft 223 kts 355°
2026-05-06 04:45 37.62600 23.73480 3901 ft 223 kts 355°
2026-05-06 04:45 37.64141 23.73365 3677 ft 220 kts 355°
2026-05-06 04:45 37.65667 23.73251 3618 ft 220 kts 355°
2026-05-06 04:46 37.67203 23.73132 3633 ft 222 kts 355°
2026-05-06 04:46 37.68741 23.73011 3630 ft 221 kts 354°
2026-05-06 04:46 37.70278 23.72893 3633 ft 221 kts 355°
2026-05-06 04:46 37.71659 23.73046 3551 ft 218 kts 12°
2026-05-06 04:47 37.73001 23.73780 3445 ft 204 kts 31°
2026-05-06 04:47 37.74048 23.74755 3325 ft 191 kts 34°
2026-05-06 04:47 37.75077 23.75719 3245 ft 187 kts 33°
2026-05-06 04:47 37.76149 23.76727 3209 ft 194 kts 34°
2026-05-06 04:48 37.77238 23.77755 3214 ft 192 kts 34°
2026-05-06 04:48 37.78261 23.78724 3203 ft 184 kts 34°
2026-05-06 04:48 37.79328 23.79731 3208 ft 195 kts 34°
2026-05-06 04:48 37.80421 23.80765 3118 ft 192 kts 34°
2026-05-06 04:49 37.81425 23.81718 2916 ft 171 kts 34°
2026-05-06 04:49 37.82347 23.82591 2716 ft 161 kts 34°
2026-05-06 04:49 37.83233 23.83430 2514 ft 157 kts 33°
2026-05-06 04:49 37.84107 23.84256 2327 ft 157 kts 34°
2026-05-06 04:50 37.84969 23.85073 2109 ft 155 kts 34°
2026-05-06 04:50 37.85830 23.85888 1897 ft 154 kts 35°
2026-05-06 04:50 37.86687 23.86703 1706 ft 154 kts 34°
2026-05-06 04:50 37.87542 23.87514 1486 ft 153 kts 35°
2026-05-06 04:51 37.88392 23.88318 1287 ft 152 kts 35°
2026-05-06 04:51 37.89237 23.89120 1083 ft 151 kts 36°
2026-05-06 04:51 37.90079 23.89918 855 ft 150 kts 37°
2026-05-06 04:51 37.90913 23.90711 669 ft 149 kts 36°
2026-05-06 04:52 37.91742 23.91498 466 ft 149 kts 35°
2026-05-06 04:52 37.92569 23.92283 310 ft 144 kts 36°
2026-05-06 04:52 37.93265 23.92948 291 ft 102 kts 37°
2026-05-06 04:52 37.93704 23.93369 294 ft 64 kts 37°
2026-05-06 04:53 37.93882 23.93605 294 ft 20 kts 59°
2026-05-06 04:53 37.93964 23.93796 300 ft 24 kts 65°
2026-05-06 04:53 37.93996 23.93892 302 ft 4 kts 78°
2026-05-06 04:53 37.93981 23.93904 301 ft 3 kts 178°
2026-05-06 04:54 37.93921 23.93852 301 ft 15 kts 218°
2026-05-06 04:54 37.93844 23.93779 299 ft 13 kts 216°
2026-05-06 04:54 37.93773 23.93712 300 ft 15 kts 217°
2026-05-06 04:54 37.93668 23.93614 301 ft 21 kts 218°
2026-05-06 04:55 37.93561 23.93511 301 ft 18 kts 218°
2026-05-06 04:55 37.93465 23.93433 299 ft 15 kts 188°
2026-05-06 04:55 37.93384 23.93518 302 ft 18 kts 126°
2026-05-06 04:55 37.93313 23.93636 303 ft 15 kts 128°
2026-05-06 04:56 37.93255 23.93735 301 ft 13 kts 126°
2026-05-06 04:56 37.93206 23.93817 301 ft 10 kts 127°
2026-05-06 04:56 37.93166 23.93883 301 ft 9 kts 127°
2026-05-06 04:56 37.93126 23.93949 303 ft 11 kts 127°
2026-05-06 04:57 37.93082 23.94025 301 ft 10 kts 127°
2026-05-06 04:57 37.93045 23.94085 301 ft 7 kts 127°
2026-05-06 04:57 37.93048 23.94130 301 ft 4 kts 43°
2026-05-06 04:57 37.93065 23.94149 304 ft 2 kts 37°
2026-05-06 04:58 37.93076 23.94159 301 ft 3 kts 37°
2026-05-06 04:58 37.93089 23.94172 302 ft 2 kts 37°
2026-05-06 04:58 37.93100 23.94182 303 ft 2 kts 37°
2026-05-06 04:58 37.93104 23.94186 302 ft 0 kts 37°